Home > Weather > Kleppestø > Past weeks

Flag for Norway Past Weather in Kleppestø, Norway — Yesterday and Last 2 Weeks

Now
61 °F

Refreshingly cool.


Feels Like: 61 °F
Forecast: 47 / 63 °F
Wind: 3 mph from Northwest

Location: Bergen / Florida

Current Time: May 26, 2016 at 8:24:45 PM

Latest Report: May 26, 2016 at 7:00 PM


Visibility: N/A

Pressure: 30.09 "Hg

Humidity: 54%

Dew Point: 44 °F

Location of KleppestøLocation

Past Weather in Kleppestø — Graph

°F

Kleppestø Temperature Yesterday

Maximum temperature yesterday: 71 °F (at 4:00 PM)
Minimum temperature yesterday: 47 °F (at 5:00 AM)
Average temperature yesterday: 60 °F

High & Low Weather Summary for the Past Weeks

 TemperatureHumidityPressure
High71 °F (May 25, 4:00 PM)88% (May 19, 4:00 AM)30.15 "Hg (May 19, 4:00 AM)
Low39 °F (May 14, 6:00 AM)21% (May 25, 6:00 PM)29.61 "Hg (May 20, 12:00 PM)
Average51 °F65%29.88 "Hg
* Reported May 11 7:00 PM — May 26 7:00 PM, Kleppestø, Weather by CustomWeather, © 2016

Note: Actual official high and low records may vary slightly from our data, if they occured in-between our weather recording intervals... More about our weather records

Advertising

Kleppestø Weather History for the Previous 24 Hours

Scroll right to see more
 ConditionsComfort  
Time TempWeatherWind HumidityBarometerVisibility
7:00 PM
Thu, May 26
61 °FRefreshingly cool.3 mph54%30.09 "HgN/A
6:00 PM65 °FMild.6 mph43%30.10 "HgN/A
5:00 PM66 °FPassing clouds.3 mph34%30.09 "Hg37 mi
4:00 PM66 °FMild.2 mph30%30.09 "HgN/A
3:00 PM66 °FMild.5 mph30%30.10 "HgN/A
2:00 PM66 °FPassing clouds.5 mph37%30.10 "Hg31 mi
1:00 PM65 °FMild.3 mph38%30.11 "HgN/A
12:00 PM65 °FMild.5 mph39%30.11 "HgN/A
11:00 AM64 °FPassing clouds.5 mph44%30.11 "Hg31 mi
10:00 AM62 °FRefreshingly cool.5 mph45%30.12 "HgN/A
9:00 AM61 °FRefreshingly cool.5 mph46%30.12 "HgN/A
8:00 AM57 °FScattered clouds.3 mph50%30.11 "Hg31 mi
7:00 AM54 °FCool.5 mph52%30.11 "HgN/A
6:00 AM50 °FCool.2 mph65%30.11 "HgN/A
5:00 AM48 °FCool.3 mph67%30.11 "HgN/A
4:00 AM49 °FCool.2 mph66%30.10 "HgN/A
3:00 AM50 °FCool.2 mph64%30.10 "HgN/A
2:00 AM51 °FCool.1 mph59%30.10 "HgN/A
1:00 AM53 °FCool.1 mph54%30.10 "HgN/A
12:00 AM55 °FCool.2 mph49%30.10 "HgN/A
11:00 PM
Wed, May 25
58 °FPassing clouds.2 mph40%30.10 "Hg31 mi
10:00 PM61 °FRefreshingly cool.2 mph38%30.09 "HgN/A
9:00 PM65 °FMild.2 mph26%30.09 "HgN/A
8:00 PM66 °FSunny.3 mph26%30.09 "Hg31 mi
Weather by CustomWeather, © 2016

See weather overviewHow to use our weather pages